Regional Weather Roundup
Issued by NWS

Home | Current Version | Previous Version | Text Only | Print | Product List | Glossary On
Versions: 1 2 3 4 5 6 7 8 9 10 11 12 13 14 15 16 17 18 19 20 21 22 23 24 25 26 27 28 29 30 31 32 33 34 35 36 37 38 39 40 41 42 43 44 45 46 47 48 49 50
000
ASUS43 KLSX 150459
RWRMO

WEATHER SUMMARY FOR MISSOURI
NATIONAL WEATHER SERVICE SPRINGFIELD MO
1200 AM CDT MON SEP 15 2014

NOTE: "FAIR" INDICATES FEW OR NO CLOUDS BELOW 12,000 FEET WITH NO
       SIGNIFICANT WEATHER AND/OR OBSTRUCTIONS TO VISIBILITY.
       CURRENT SKY AND/OR WEATHER CONDITIONS ARE NOT AVAILABLE FOR
       CHILLICOTHE AND FARMINGTON.

MOZ001>031-035>038-043-044-053-054-150600-
...NORTHERN AND WESTERN MISSOURI...

CITY           SKY/WX    TMP DP  RH WIND       PRES   REMARKS
KANSAS CTY INT MOCLDY    65  57  75 S12       30.08R
KANSAS C DTWN  CLEAR     68  56  65 SE8G22    30.07F
LEE`S SUMMIT   CLEAR     60  56  86 SE7       30.10F
ST JOSEPH      CLOUDY    65  58  78 SE5       30.08F
KIRKSVILLE     CLOUDY    60  55  83 CALM      30.15S

$$
MOZ066>068-077>081-088>096-101>105-150600-
...SOUTHWEST MISSOURI...

CITY           SKY/WX    TMP DP  RH WIND       PRES   REMARKS
SPRINGFIELD    MOCLDY    65  53  65 S13       30.14F
JOPLIN         CLOUDY    67  59  75 S12       30.13S

$$
MOZ032>034-039>042-045>050-055>058-069>072-150600-
...CENTRAL MISSOURI...

CITY           SKY/WX    TMP DP  RH WIND       PRES   REMARKS
COLUMBIA       CLEAR     59  52  77 SE7       30.14S
JEFFERSON CITY CLEAR     58  53  84 E5        30.14S
ROLLA          PTCLDY    59  50  72 S7        30.14F
SEDALIA        CLEAR     59  52  77 SE3       30.12F
OSAGE BEACH    PTCLDY    57  52  82 SE5       30.13F

$$
MOZ051-052-059>065-150600-
...EAST CENTRAL MISSOURI...

CITY           SKY/WX    TMP DP  RH WIND       PRES   REMARKS
ST LOUIS INTL  PTCLDY    62  48  60 SE7       30.18S
SPIRIT OF STL  CLEAR     56  50  80 CALM      30.16S
ST CHARLES     CLEAR     54  50  86 E5        30.17S

$$
MOZ072>076-082>087-097>100-106>115-150600-
...SOUTH CENTRAL AND SOUTHEAST MISSOURI...

CITY           SKY/WX    TMP DP  RH WIND       PRES   REMARKS
CAPE GIRARDEAU CLEAR     54  52  93 CALM      30.19F
FARMINGTON     PTCLDY    54  52  94 CALM      30.21S
POPLAR BLUFF   CLOUDY    58  54  86 CALM      30.18F
WEST PLAINS    MOCLDY    61  50  67 S5        30.20S

$$


USA.gov is the U.S. government's official web portal to all federal, state and local government web resources and services.